This is the latest recevied weather packets stored in our database for station/object EA1ZE. If no packets are shown the sender has not sent any weather packets the latest 10 day(s).
| Time | Temp. | Humidity | Pressure | Rain* | Wind** | Luminosity | Snow |
|---|---|---|---|---|---|---|---|
| 1788102030 | 27.78° C | 38% | 1015 hPa | 0 mm | - | - | - |
| 1788101130 | 27.78° C | 37% | 1015 hPa | 0 mm | - | - | - |
| 1788100226 | 27.22° C | 38% | 1015.2 hPa | 0 mm | - | - | - |
| 1788099326 | 27.22° C | 40% | 1015.2 hPa | 0 mm | - | - | - |
| 1788098424 | 27.22° C | 41% | 1015.3 hPa | 0 mm | - | - | - |
| 1788097523 | 27.22° C | 41% | 1015.3 hPa | 0 mm | - | - | - |
| 1788096626 | 27.78° C | 43% | 1015.3 hPa | 0 mm | - | - | - |
| 1788095777 | 27.22° C | 43% | 1015.5 hPa | 0 mm | - | - | - |
| 1788094899 | 27.22° C | 44% | 1015.6 hPa | 0 mm | - | - | - |
| 1788093989 | 27.22° C | 45% | 1015.7 hPa | 0 mm | - | - | - |
| 1788093094 | 26.67° C | 48% | 1015.8 hPa | 0 mm | - | - | - |
| 1788092176 | 26.11° C | 49% | 1016 hPa | 0 mm | - | - | - |
| 1788091206 | 25.56° C | 51% | 1016 hPa | 0 mm | - | - | - |
| 1788090336 | 25.56° C | 52% | 1016.1 hPa | 0 mm | - | - | - |
| 1788089433 | 25° C | 54% | 1016.1 hPa | 0 mm | - | - | - |
| 1788088534 | 25° C | 55% | 1016.2 hPa | 0 mm | - | - | - |
| 1788087631 | 24.44° C | 57% | 1016.3 hPa | 0 mm | - | - | - |
| 1788086727 | 24.44° C | 58% | 1016.4 hPa | 0 mm | - | - | - |
| 1788085829 | 23.89° C | 60% | 1016.6 hPa | 0 mm | - | - | - |
| 1788084924 | 23.33° C | 62% | 1016.7 hPa | 0 mm | - | - | - |
| 1788084020 | 22.78° C | 63% | 1016.7 hPa | 0 mm | - | - | - |
| 1788083120 | 22.78° C | 65% | 1016.6 hPa | 0 mm | - | - | - |
| 1788082228 | 22.22° C | 67% | 1016.8 hPa | 0 mm | - | - | - |
| 1788081319 | 21.67° C | 68% | 1016.9 hPa | 0 mm | - | - | - |
| 1788080411 | 21.67° C | 68% | 1016.9 hPa | 0 mm | - | - | - |
* Rain latest hour (hover to see other rain measurements)
** Current wind speed in m/s (hover to see current wind gust speed)